Wind_Speed
127 129 131 131 131 129 126 122 117 111 107 104 102 100 99 97 96 95 94 93 93 93 93 94 94 95 96 97 98 99 100 102 103 105 107 109 111 114 116 119 121 123 125 127 129 130 131 132 133 134 134 134 134 133 132 131 130 129 128 128 129 130 130 129 126 124 126 132 132 132 134 135 134 133 134 133 133 132 130 128 125 123 122 120 118
132 133 134 134 131 127 123 118 113 108 105 103 101 100 98 97 95 94 94 93 93 93 93 93 93 93 94 95 95 96 98 99 101 102 104 106 108 110 112 114 116 119 121 123 125 127 129 130 131 133 134 134 134 134 133 131 130 129 128 127 126 127 128 127 125 122 123 130 134 133 134 137 137 136 137 136 135 135 135 133 131 129 126 125 123
136 137 137 134 130 124 119 114 109 106 103 101 99 97 96 95 94 94 93 93 93 93 93 93 93 93 93 93 94 94 95 96 97 98 99 101 103 105 107 109 111 114 116 118 120 122 124 125 127 128 129 130 131 132 132 131 130 128 127 126 125 125 125 125 123 121 120 124 131 134 134 136 138 138 139 140 138 138 137 137 136 135 132 130 127
139 139 136 132 127 122 116 111 106 103 101 99 97 95 94 94 93 93 93 93 93 93 93 93 93 93 93 93 93 93 93 94 94 95 96 97 98 100 101 103 105 107 109 111 113 115 117 119 120 122 123 124 125 127 127 128 128 127 126 126 125 123 123 123 122 120 117 118 123 130 132 133 136 138 140 142 142 141 140 139 139 139 138 136 133
140 138 134 129 124 119 113 108 105 102 99 97 95 94 93 93 93 93 93 93 93 93 93 93 93 93 93 93 93 93 93 94 94 94 94 95 96 97 98 100 101 103 104 106 107 109 110 112 113 115 116 117 118 120 121 122 122 123 123 123 123 122 120 120 120 118 116 113 116 122 128 129 132 136 139 142 144 143 143 142 142 142 141 141 139
140 135 131 127 121 116 111 107 104 101 99 97 95 94 94 94 93 93 93 93 93 92 92 92 92 93 93 93 93 93 94 94 94 94 94 95 95 96 97 98 100 101 102 103 105 105 106 108 109 110 111 112 113 114 115 116 117 118 118 118 118 118 117 117 117 116 114 111 110 114 120 124 126 130 135 141 143 144 144 145 145 144 143 143 142
138 133 129 123 118 114 110 107 104 101 99 97 96 95 95 94 94 93 93 92 92 92 92 92 92 92 93 93 94 94 94 95 95 95 95 95 96 96 97 98 99 100 101 102 103 104 104 105 106 107 108 109 110 111 111 112 113 114 115 115 115 114 114 113 113 113 111 110 108 108 112 116 119 123 129 135 140 142 144 145 146 146 145 144 144
136 131 126 120 116 112 110 107 104 101 99 98 97 96 95 95 94 93 93 92 91 91 91 91 92 92 93 93 93 94 94 95 95 95 95 96 96 97 97 98 98 99 100 101 102 102 102 103 103 104 105 106 107 108 108 109 110 111 112 112 112 111 111 111 110 110 109 107 106 106 107 109 112 117 122 128 133 136 139 142 144 145 146 146 145
133 128 122 118 114 111 109 106 104 102 100 99 97 96 95 95 94 93 93 92 91 91 91 91 92 92 93 93 94 94 95 95 95 95 96 96 96 97 97 98 98 99 100 100 101 101 101 101 101 102 103 104 104 105 105 106 107 107 108 109 109 108 108 109 108 108 107 105 104 104 104 105 108 112 115 120 125 128 132 136 139 140 143 146 146
130 125 120 116 113 110 108 106 104 102 101 99 97 96 95 94 93 93 93 92 91 91 91 91 92 92 92 93 93 94 95 95 95 95 96 96 96 96 96 97 97 98 98 99 99 99 100 100 100 100 101 101 102 102 103 103 104 103 104 105 105 105 106 106 106 106 105 104 103 103 102 102 105 108 110 113 118 121 125 129 133 134 137 142 145
128 123 119 115 112 110 108 106 104 102 100 98 97 95 94 93 93 92 92 91 91 90 90 90 91 91 91 92 93 93 94 95 95 95 94 94 94 93 94 94 95 96 96 96 97 97 98 98 98 99 99 100 100 100 100 101 101 101 100 101 101 102 103 103 103 103 103 102 102 102 101 101 103 106 107 108 112 115 118 122 126 128 131 134 138
126 121 118 114 111 109 107 106 104 102 100 98 96 95 94 93 92 91 91 90 90 89 89 89 89 89 90 90 91 92 93 93 93 93 92 92 91 91 91 92 93 94 94 94 95 95 96 97 97 98 98 98 98 98 98 98 98 98 98 98 98 98 99 99 99 100 101 100 100 100 101 101 101 104 105 106 108 110 112 115 119 123 126 128 130
124 120 117 114 111 109 107 105 103 101 99 97 96 94 93 92 91 90 90 89 89 88 88 88 88 88 88 89 89 90 91 91 91 90 90 90 89 89 89 90 91 91 92 92 92 93 94 94 96 97 97 98 97 97 97 96 96 96 96 96 96 96 96 96 96 96 96 97 98 99 100 100 100 102 104 104 104 106 107 110 113 117 120 122 125
122 119 116 113 111 109 106 104 102 100 98 96 95 93 92 91 90 89 89 88 88 87 87 86 86 86 86 87 87 88 89 89 88 88 87 87 87 87 87 87 88 88 88 89 89 90 91 92 94 95 96 97 97 96 96 96 95 95 95 95 95 95 94 94 93 93 92 93 94 96 99 99 99 100 102 102 102 103 104 106 109 112 114 116 119
121 118 115 113 110 108 106 104 101 99 97 96 94 93 92 91 90 89 88 87 86 86 85 85 85 85 85 85 86 86 87 87 86 85 85 85 84 84 84 85 85 85 86 86 87 88 89 90 91 93 94 95 95 95 95 95 95 95 95 95 95 94 94 93 92 91 90 90 91 92 95 97 98 99 100 100 101 102 103 104 106 108 110 111 114
119 116 114 112 110 107 105 103 101 99 97 95 94 93 91 90 89 88 87 86 85 84 84 84 84 84 84 84 85 85 86 85 84 84 84 83 83 82 82 82 82 83 83 83 84 85 86 87 88 89 90 91 92 93 94 94 94 94 94 95 94 94 94 94 92 90 89 89 89 90 91 93 95 97 98 99 99 100 101 103 104 106 106 107 109
118 115 113 111 109 107 105 103 101 99 97 95 94 92 91 89 88 87 86 85 84 84 83 83 83 83 84 84 84 84 84 84 83 83 83 82 81 80 80 80 80 81 81 81 82 83 84 85 85 85 86 87 88 90 92 92 92 92 92 93 93 93 94 95 93 91 89 89 89 89 90 91 92 94 96 97 98 99 100 101 102 103 103 103 105
116 114 112 110 108 106 105 103 101 99 97 95 93 92 90 89 87 86 85 84 83 83 82 82 82 83 83 83 83 83 83 83 83 83 82 81 80 79 79 79 79 79 79 79 80 81 82 82 82 82 82 84 85 86 88 89 88 89 89 89 90 92 94 94 93 91 91 90 89 88 89 90 91 92 93 95 96 97 98 100 100 100 99 100 102
115 113 111 109 107 105 104 102 100 98 96 94 93 91 90 88 86 85 84 83 82 82 82 82 82 82 83 83 82 82 82 82 82 82 82 81 80 79 78 78 78 78 77 78 78 79 79 80 80 80 80 81 82 83 84 85 85 85 85 85 87 89 91 92 92 92 92 91 90 89 89 90 90 91 92 93 94 95 96 97 98 98 97 97 99
113 111 109 107 105 103 101 100 98 96 95 93 92 90 88 87 85 84 83 82 81 81 81 81 82 82 83 83 82 82 81 81 82 82 81 80 79 78 77 76 76 75 75 76 77 77 78 78 78 79 78 79 79 79 80 81 81 81 81 82 83 85 87 89 90 91 91 91 91 90 90 90 90 90 90 91 93 94 95 95 95 95 95 95 96
111 109 107 105 103 101 99 97 96 94 93 91 90 88 87 86 84 83 82 81 81 81 81 81 81 82 82 82 82 81 80 80 81 81 80 79 78 76 75 75 74 73 74 75 75 76 76 76 77 77 76 76 75 75 76 77 77 76 77 78 79 81 83 84 87 89 90 90 91 91 91 91 90 89 89 89 90 91 93 93 94 93 93 94 95
109 107 105 103 101 98 97 95 94 92 91 89 88 87 86 85 83 83 82 81 81 81 81 81 81 81 81 81 80 80 79 80 80 80 80 78 77 76 75 74 73 72 71 72 73 74 74 75 76 76 75 73 73 74 74 74 74 73 73 74 75 76 77 79 82 85 86 87 89 90 91 91 90 89 89 89 89 89 90 91 92 92 92 93 94
106 104 102 100 98 97 95 93 92 90 89 88 87 86 85 84 83 83 82 81 81 80 80 80 80 80 80 80 79 79 79 79 79 79 78 77 77 76 75 74 72 70 68 69 70 72 73 74 75 74 74 73 73 73 73 73 72 72 72 72 72 73 74 75 77 80 82 83 85 87 89 90 89 89 89 89 89 88 88 88 89 89 90 91 93
104 102 100 99 97 95 93 91 90 89 88 87 87 86 86 85 84 83 82 81 80 80 80 80 79 78 78 79 79 79 78 78 78 78 77 76 76 76 75 73 71 68 66 66 67 69 72 73 74 73 73 73 73 73 72 72 71 71 71 71 71 71 72 73 74 76 78 80 82 83 85 87 87 88 88 89 89 88 87 86 86 86 87 88 90
102 100 99 97 95 93 91 90 89 88 88 88 87 87 87 86 85 84 83 81 80 80 79 79 78 77 77 77 78 78 78 77 77 77 76 75 75 75 74 73 71 68 66 65 66 68 70 72 72 72 72 72 73 73 73 72 71 71 70 70 70 71 71 71 72 73 75 77 78 80 82 84 85 85 85 86 87 87 87 86 85 85 85 85 86
100 99 97 95 93 91 90 89 88 88 88 88 88 88 88 87 86 84 83 81 80 80 79 78 77 77 76 77 77 77 77 77 77 77 76 75 75 75 74 73 71 68 67 66 66 68 69 71 71 71 71 71 71 71 72 72 72 72 70 69 69 70 70 70 71 71 72 74 75 77 79 81 81 82 82 83 83 84 85 85 85 85 84 83 83
99 97 96 93 91 90 88 88 88 88 88 89 89 88 88 86 85 84 83 82 81 80 79 78 77 76 76 75 75 76 76 76 75 75 75 75 75 75 74 73 71 69 68 67 67 67 68 69 70 69 69 69 69 69 70 71 72 72 71 70 69 69 69 69 69 70 70 71 73 74 76 77 78 79 79 79 80 82 83 83 84 84 84 82 81
97 96 94 92 90 89 88 88 88 88 88 89 89 88 87 86 85 84 83 82 80 79 79 78 77 76 74 74 74 74 74 75 74 73 73 73 73 73 73 72 70 68 68 68 68 68 68 68 68 68 68 68 68 68 68 69 70 71 71 71 70 69 68 68 68 68 68 69 70 72 72 73 74 75 76 77 78 80 81 81 81 82 82 82 81
96 95 93 91 89 88 87 87 87 87 88 88 88 87 86 85 85 84 83 81 79 78 77 77 76 74 73 73 73 72 72 73 72 72 72 72 72 72 71 70 68 67 68 68 67 67 67 67 67 66 66 66 66 66 67 67 68 69 69 70 70 69 68 67 67 67 66 67 68 69 69 70 71 71 72 74 76 78 79 80 80 80 80 81 81
94 92 90 89 87 86 86 86 86 86 87 87 86 86 85 85 85 84 82 80 78 76 75 75 74 73 72 72 71 70 69 70 70 71 71 72 72 72 70 68 66 66 66 67 67 66 66 66 65 64 64 64 64 65 65 66 66 67 67 68 69 68 68 66 65 65 65 65 65 66 66 67 68 69 70 72 74 76 78 78 78 78 79 79 79
91 89 88 86 85 84 84 84 85 85 85 85 84 84 85 85 85 83 81 79 77 76 75 74 73 72 70 70 69 68 68 68 69 70 70 71 72 73 71 68 66 65 65 65 65 65 64 64 64 63 63 63 63 64 64 65 65 65 66 66 66 65 65 64 63 63 63 62 63 63 64 65 67 68 69 70 71 73 75 76 76 76 76 77 77
88 87 85 84 83 83 83 83 83 83 83 82 82 82 83 84 85 84 82 79 78 77 76 74 73 71 69 68 67 67 67 67 68 69 69 70 71 72 70 67 65 65 64 64 64 64 63 63 63 62 62 62 62 62 63 63 64 64 64 64 64 63 62 61 60 60 60 60 61 62 63 64 66 67 69 69 69 70 72 73 73 73 73 74 75
86 84 83 83 82 82 82 82 81 81 81 80 80 80 81 82 83 83 82 81 79 77 76 75 73 71 70 68 67 66 66 66 66 67 69 70 70 70 69 67 65 64 63 63 62 62 62 62 61 62 61 61 61 61 61 61 62 62 62 62 62 61 60 58 58 58 58 59 60 61 62 63 64 66 67 68 68 69 69 70 70 70 70 71 72
84 83 82 82 81 81 81 80 80 79 79 79 79 79 79 80 80 80 80 80 80 79 77 75 74 72 71 69 67 66 65 64 64 65 67 69 69 69 68 66 64 63 62 62 61 60 60 60 60 60 61 61 60 61 61 61 60 60 60 59 59 59 58 57 56 56 57 57 58 59 61 62 63 63 65 66 67 67 67 68 68 68 68 68 69
82 82 81 81 81 80 79 79 78 77 78 79 79 79 79 78 78 77 77 78 79 79 79 77 75 73 71 70 69 68 65 63 63 64 65 67 67 67 67 65 63 62 61 60 60 59 59 59 59 59 59 59 59 59 59 59 59 58 58 58 58 57 57 56 55 55 56 56 57 58 59 60 60 61 62 63 64 65 65 66 67 67 68 68 68
82 81 81 80 80 80 79 78 77 77 78 78 78 78 78 77 77 76 75 75 76 77 78 78 77 74 71 70 70 69 67 64 63 64 64 65 66 66 66 64 63 61 59 58 58 58 58 58 58 58 58 58 58 58 57 57 57 57 57 57 57 56 56 55 54 54 55 55 55 56 57 57 58 58 59 60 61 61 62 64 65 66 67 68 68
82 81 81 80 79 79 78 78 77 77 77 77 77 77 77 77 76 75 74 74 74 75 76 77 78 76 73 70 69 69 68 66 64 63 64 64 65 65 65 64 62 61 59 57 56 56 56 56 57 57 57 57 56 56 55 55 55 55 55 55 55 55 55 54 53 53 53 54 54 54 55 55 55 56 56 57 57 58 59 61 63 64 66 67 67
82 81 80 79 78 78 78 78 77 77 76 76 76 76 76 76 75 74 73 73 73 73 74 75 76 76 74 72 69 68 67 66 64 63 63 63 64 64 63 63 62 60 59 57 56 55 55 55 55 55 55 55 55 54 54 53 53 53 54 55 54 54 54 54 53 53 53 53 54 53 53 53 53 53 54 54 55 56 57 59 60 61 63 64 64
82 80 79 78 78 77 77 77 77 76 76 75 75 75 75 75 74 73 72 72 72 72 72 73 74 74 73 73 70 68 67 65 64 63 62 62 62 63 62 61 60 59 59 57 56 55 54 54 54 54 53 53 52 52 52 51 51 51 52 54 54 54 54 54 53 53 53 53 54 54 53 53 52 52 52 52 52 54 55 57 57 58 59 60 61
80 79 78 78 77 76 76 76 76 75 75 74 74 74 74 73 73 72 71 71 71 71 71 71 72 71 72 72 71 69 67 64 62 62 61 61 61 61 61 60 59 58 58 57 56 55 55 54 53 53 52 51 50 49 49 49 49 49 50 52 53 53 53 53 53 53 53 53 53 53 53 52 52 52 51 50 51 52 54 55 55 55 56 57 57
79 78 78 77 76 75 75 75 75 74 74 73 73 72 72 72 72 71 71 70 70 69 70 70 70 69 70 70 70 69 67 64 62 61 60 60 59 59 59 59 58 57 56 56 55 55 55 54 53 51 51 50 49 48 47 47 48 48 49 50 51 51 52 52 52 52 52 52 52 52 52 51 51 51 50 49 49 50 52 54 54 54 54 54 55
78 77 77 77 76 75 75 74 74 73 73 72 72 72 72 72 71 70 70 69 68 68 68 68 68 68 68 68 69 68 66 64 62 60 58 58 58 58 57 57 56 56 55 55 55 54 54 53 52 51 50 49 48 47 46 46 47 47 48 49 49 50 50 51 51 52 52 52 52 51 51 51 50 50 50 49 49 49 50 52 53 53 52 52 52
78 78 77 77 76 76 75 74 73 73 72 72 72 72 72 71 70 70 69 68 67 67 67 67 67 66 66 67 67 66 65 63 62 59 57 56 56 56 56 56 55 55 54 54 54 53 52 51 50 49 48 48 47 46 46 46 46 47 47 47 47 48 49 49 50 50 51 51 51 50 50 50 49 49 49 49 48 49 49 51 51 52 51 51 51
78 78 78 77 77 76 75 74 73 73 72 73 73 72 71 71 70 69 68 67 67 66 66 66 65 65 64 65 65 65 63 62 61 59 57 55 54 54 54 54 54 54 54 53 53 52 50 49 48 47 47 46 45 45 44 45 46 47 46 45 45 45 46 47 47 48 49 50 49 49 49 49 48 48 48 48 47 47 48 49 50 50 50 50 50
78 77 77 77 76 76 75 74 73 73 72 73 72 72 71 70 69 68 67 66 66 66 65 65 64 64 63 63 63 63 62 61 60 58 56 55 54 53 53 53 53 53 53 52 51 50 49 48 47 46 45 45 44 43 43 43 44 45 46 45 44 44 44 44 44 46 47 48 48 47 47 47 47 47 47 47 46 46 47 48 49 49 49 49 49
77 76 76 76 75 75 75 74 73 72 72 72 72 71 70 69 68 67 66 65 65 65 64 63 63 62 62 61 62 61 61 59 58 57 56 54 53 52 52 52 52 52 52 51 50 49 48 47 47 46 45 44 43 42 42 42 43 44 44 44 44 43 43 43 43 44 45 46 46 45 45 45 45 45 46 45 45 45 45 46 47 47 47 48 48
76 75 75 75 74 74 74 73 72 72 71 71 71 70 69 68 67 66 64 64 64 64 63 62 61 61 60 60 60 59 59 58 56 55 54 53 52 52 51 51 51 51 50 50 49 48 47 46 46 45 45 44 43 42 42 41 42 42 43 43 43 43 42 42 42 43 43 44 44 44 43 43 43 43 44 44 44 44 44 45 45 46 46 46 46
75 74 74 74 73 73 72 72 71 71 70 70 69 69 68 67 66 64 63 63 63 62 61 60 60 60 59 58 58 57 57 56 55 54 53 52 51 51 50 50 50 49 48 48 48 48 47 46 45 45 44 44 43 42 42 41 41 41 41 41 41 41 41 41 41 42 42 42 43 43 42 42 41 41 41 42 42 42 42 43 43 44 44 45 45
74 74 73 72 72 72 71 71 70 70 69 68 68 67 66 65 64 62 62 62 62 60 59 59 59 58 58 57 56 55 55 54 54 53 52 51 50 50 49 49 49 48 47 46 46 47 46 46 45 44 44 43 43 43 42 42 41 41 40 40 39 40 40 40 40 40 41 41 41 42 41 41 40 40 40 40 40 41 41 41 42 42 42 43 43
73 72 72 71 70 70 70 69 69 68 68 67 66 66 65 64 62 61 61 61 60 58 58 57 57 57 56 55 54 53 53 52 52 51 51 50 49 49 48 48 47 46 46 45 45 45 45 45 45 44 43 43 43 43 43 42 41 40 39 39 38 38 38 39 39 40 40 40 40 40 40 40 39 39 38 39 39 39 39 39 40 40 41 41 41
71 71 70 70 69 69 68 68 67 67 66 65 64 64 63 61 60 60 60 59 58 57 56 56 55 55 54 53 53 52 52 51 51 50 49 48 48 47 47 46 46 45 45 44 44 44 44 44 44 43 43 42 42 42 42 41 41 40 39 38 37 37 37 38 38 39 39 39 39 39 39 39 38 37 37 37 37 37 37 37 37 38 38 39 39
Wind_Direction
314 314 314 313 313 312 310 308 306 304 302 300 298 297 295 294 292 290 288 286 284 283 281 279 277 276 274 273 271 270 269 268 267 266 265 264 263 263 262 262 262 262 262 262 262 262 262 262 262 262 263 263 263 263 263 263 263 262 261 260 259 258 257 257 256 254 252 251 250 249 249 250 250 250 250 250 250 251 251 250 250 249 249 249 249
314 314 313 313 312 311 309 307 305 303 301 299 298 297 295 294 292 290 289 287 285 283 282 280 279 277 276 274 273 272 271 270 269 268 267 266 266 265 265 264 264 264 263 263 263 263 263 263 263 263 263 264 264 264 264 265 264 264 263 262 261 260 259 258 257 256 253 252 251 250 249 249 249 249 250 250 250 250 250 250 250 249 249 249 249
314 314 313 312 311 309 307 305 303 301 300 299 297 296 295 293 292 290 289 287 286 284 283 282 280 279 278 277 276 274 273 272 271 270 269 268 268 267 267 266 265 265 265 264 264 264 264 264 264 263 264 264 264 264 264 265 265 265 264 264 263 262 261 260 259 257 255 253 252 251 250 250 249 249 249 250 250 250 250 250 250 250 249 248 248
314 313 313 312 310 308 306 304 302 301 299 298 297 295 294 293 291 290 289 287 286 285 284 283 282 281 280 279 278 277 276 275 273 272 271 270 270 269 268 268 267 266 266 266 265 265 265 265 265 265 264 264 264 264 264 264 264 264 264 264 263 263 262 261 260 258 257 254 253 252 252 251 250 249 249 249 249 249 250 250 250 250 249 249 248
313 313 312 311 309 307 305 303 302 301 299 298 297 296 294 293 292 290 289 288 287 286 285 284 283 282 281 281 280 279 278 277 276 275 273 272 272 271 270 269 268 268 267 266 266 265 265 265 265 265 265 265 264 264 264 264 264 264 264 263 263 263 262 261 260 260 258 256 254 253 252 252 251 251 250 249 249 249 249 249 249 249 249 249 249
313 312 311 309 308 306 304 303 302 301 299 298 297 296 295 293 292 291 290 289 288 287 286 285 284 283 282 281 281 280 279 278 277 276 275 274 273 272 271 271 270 269 268 268 267 266 266 265 265 265 265 265 264 264 264 264 264 264 264 263 263 263 262 261 261 260 259 258 256 254 253 252 252 251 251 250 250 249 249 249 249 249 249 249 249
312 311 310 308 306 305 304 303 302 301 300 299 298 297 295 294 293 291 290 289 288 287 286 285 284 283 282 282 281 280 279 278 278 277 276 275 274 273 273 272 271 271 270 269 269 268 268 267 267 266 266 265 265 265 264 264 264 264 264 264 264 263 263 262 262 261 260 259 257 256 254 253 252 251 251 250 250 250 250 249 249 249 249 249 249
311 310 308 307 306 305 304 303 302 301 300 299 298 297 296 294 293 292 291 289 288 287 286 285 284 283 282 282 281 280 279 279 278 277 276 276 275 274 274 273 273 272 271 271 270 270 269 269 268 268 267 267 266 266 265 265 265 265 265 265 264 264 264 264 263 262 261 260 259 257 256 254 253 252 251 251 250 250 250 250 249 249 249 249 249
310 308 307 306 305 305 304 303 302 301 300 299 298 297 296 295 293 292 291 289 288 287 286 285 284 283 282 282 281 280 280 279 278 278 277 276 276 275 275 275 274 274 273 273 273 272 272 271 270 270 269 268 268 267 267 266 265 265 265 265 265 265 264 264 264 263 263 262 260 259 257 256 254 253 251 251 250 250 250 250 250 249 249 250 249
309 308 307 306 305 304 303 303 302 301 300 300 298 297 296 294 293 292 290 289 288 287 286 285 284 283 282 281 280 280 279 278 278 277 277 276 276 276 276 275 275 275 274 274 274 274 274 273 272 272 271 270 270 269 268 267 266 266 265 265 265 265 264 264 264 263 263 262 261 260 258 257 255 254 253 251 250 249 249 249 249 249 249 249 250
308 307 306 305 305 304 303 303 302 301 301 299 298 297 295 294 293 291 290 289 288 287 285 284 283 282 281 280 280 279 278 278 277 277 276 276 276 276 275 275 275 275 275 274 274 274 274 274 273 273 272 272 271 270 270 269 268 267 267 266 265 264 264 263 263 263 262 262 261 260 259 257 256 255 254 252 251 250 249 248 249 249 249 249 249
307 306 306 305 305 304 304 303 302 301 300 299 298 297 295 294 292 291 290 289 288 286 285 284 283 282 281 280 279 279 278 278 277 277 277 276 276 276 275 275 275 275 274 274 274 274 274 274 273 273 272 272 271 271 270 270 269 269 268 267 266 265 264 263 263 262 262 262 261 260 259 258 256 255 254 253 252 251 249 248 248 248 248 248 248
307 306 306 306 305 305 304 303 302 301 300 299 297 296 295 293 292 291 290 289 288 287 286 285 284 283 282 281 280 279 278 278 278 277 277 277 276 276 275 275 274 274 274 274 274 273 273 273 273 273 272 272 271 271 271 270 270 269 269 268 267 266 265 264 263 262 261 261 261 260 259 258 256 256 255 253 252 251 250 249 248 247 246 246 247
307 306 306 306 305 304 303 302 301 300 299 298 297 296 294 293 292 292 291 290 289 288 287 286 284 283 282 281 281 280 279 279 278 278 278 277 277 276 275 275 274 274 274 274 273 273 273 272 272 272 272 272 272 271 271 271 270 270 269 269 268 267 266 265 264 263 262 260 260 259 259 259 257 256 255 254 253 252 251 250 248 247 246 245 245
307 306 306 305 304 304 303 302 301 300 299 298 297 296 295 294 293 293 292 291 290 288 287 286 285 284 283 282 282 281 281 280 280 279 279 278 278 277 276 276 275 275 274 274 273 273 272 272 271 271 272 272 272 272 272 271 271 270 270 270 269 268 267 266 265 264 262 261 260 259 258 258 258 257 256 255 253 252 251 250 249 248 246 245 244
306 306 305 304 304 303 302 301 300 300 299 298 297 296 296 295 294 293 292 291 290 289 289 288 287 286 285 285 284 283 283 282 282 281 281 280 279 278 278 277 277 276 275 274 274 273 272 271 271 271 271 271 271 271 271 271 271 271 270 270 270 270 269 268 266 265 263 262 261 259 258 257 257 257 256 255 254 253 252 250 249 248 247 245 244
305 305 304 303 303 302 302 301 300 300 299 298 297 297 296 295 294 293 293 292 291 291 290 289 288 288 287 286 286 285 285 284 284 283 282 281 281 280 279 279 278 277 277 276 275 274 273 272 271 271 270 270 270 270 270 270 270 270 270 270 270 270 270 269 268 266 265 263 261 260 259 257 256 256 256 255 255 254 252 251 250 249 247 246 245
304 304 303 303 302 302 302 301 300 300 299 298 298 297 296 295 294 294 293 293 292 291 291 290 289 289 288 287 287 286 286 285 285 284 283 283 282 282 281 280 280 279 278 278 276 275 274 273 272 271 271 270 269 269 268 268 268 268 268 268 269 269 269 269 269 268 267 265 263 261 260 258 257 255 255 255 255 254 253 252 251 250 248 247 246
303 303 303 302 302 302 301 301 300 299 299 298 297 296 296 295 295 294 293 293 292 292 291 290 290 289 289 288 288 287 287 286 286 285 284 284 283 283 282 282 281 281 280 279 278 277 276 275 274 273 271 270 269 269 269 268 267 267 267 267 266 267 267 268 268 268 267 266 265 263 261 260 258 256 255 254 254 254 253 253 252 251 250 248 246
303 302 302 302 301 301 300 300 299 299 298 298 297 296 296 295 294 294 293 293 292 292 291 291 291 290 290 289 289 288 288 287 287 286 285 285 284 284 283 283 282 281 281 280 279 278 278 277 276 274 273 271 271 270 270 269 268 267 267 266 265 265 265 266 266 266 266 266 266 265 263 262 260 258 256 254 254 253 253 253 253 252 251 250 248
302 302 301 301 301 300 300 299 299 298 297 297 296 296 295 295 294 294 293 293 293 292 292 292 291 291 291 290 290 289 289 288 287 287 286 286 285 285 284 283 282 282 282 281 280 280 279 278 277 276 274 273 273 272 271 270 269 268 267 266 265 264 264 264 264 264 264 264 264 264 264 263 261 260 258 256 255 253 252 252 252 251 251 250 250
301 301 301 301 300 299 299 298 298 297 297 296 296 295 295 294 294 294 294 294 293 293 293 293 292 292 291 291 290 290 289 288 288 287 287 287 286 285 285 284 283 283 283 282 282 281 280 279 278 277 276 275 274 273 272 271 270 268 267 266 265 265 264 263 263 263 263 263 263 263 263 263 262 261 260 259 257 255 253 252 251 250 250 249 249
301 301 301 300 300 299 299 298 298 297 296 296 295 295 295 294 294 294 294 294 294 294 293 293 292 292 292 291 291 290 289 289 288 288 288 288 287 286 285 285 284 283 283 283 283 282 282 281 279 279 278 277 276 275 273 272 271 269 268 267 266 265 264 264 263 263 263 263 262 262 262 262 261 261 261 260 259 257 256 254 252 250 249 248 248
301 301 300 300 299 299 298 298 297 297 296 296 295 295 295 295 295 295 295 295 295 294 294 293 293 292 292 291 291 291 290 290 289 289 288 288 288 287 287 286 285 284 284 283 283 282 282 281 280 280 279 279 278 277 275 274 272 271 269 268 267 266 265 264 263 263 263 263 262 262 262 262 261 260 260 260 260 260 258 256 254 252 250 249 248
301 300 300 300 299 299 298 298 297 297 296 296 296 295 295 295 295 295 295 295 295 295 294 293 293 292 292 292 292 291 291 291 290 290 290 290 289 289 288 288 287 287 286 285 283 282 281 280 280 279 279 279 278 278 277 276 274 273 271 269 268 267 265 264 263 263 263 263 263 262 262 262 262 261 261 260 260 260 260 259 257 256 253 251 249
300 300 299 299 299 298 298 297 297 296 296 296 295 295 295 295 295 295 295 295 295 295 294 293 293 293 293 293 292 292 292 292 291 291 291 291 290 290 289 289 289 288 287 285 283 281 280 279 279 278 278 277 277 277 276 276 275 274 272 270 269 268 267 265 264 263 262 262 262 262 262 263 263 263 262 261 261 261 260 260 259 258 256 253 251
300 299 299 299 298 298 297 297 296 296 295 295 294 294 295 295 295 295 295 295 295 295 294 294 294 293 293 293 292 292 292 291 291 291 291 291 290 290 289 289 289 288 287 285 283 281 279 279 278 278 277 276 275 275 275 275 274 274 273 271 269 268 267 266 265 264 263 262 262 262 262 263 263 263 264 263 262 261 260 259 259 258 257 255 253
299 299 299 298 298 297 296 296 295 295 294 294 294 294 295 295 295 295 295 295 295 295 294 294 294 294 293 293 292 292 292 291 291 291 291 290 290 289 289 289 288 288 286 284 283 281 280 279 278 278 277 276 275 274 273 273 273 273 273 272 270 269 268 267 266 264 263 263 262 262 263 263 263 263 263 263 263 262 261 260 259 258 257 256 254
299 298 298 297 296 296 295 295 294 294 294 294 294 295 295 295 295 295 295 295 295 294 294 294 294 293 293 293 292 292 292 292 292 291 290 290 289 289 288 288 288 287 286 285 284 282 281 280 279 278 277 276 275 274 273 272 271 271 271 271 271 270 269 268 267 266 265 264 263 263 263 263 263 262 262 262 262 261 261 260 259 258 258 257 255
297 296 296 295 295 294 294 294 293 293 293 294 294 295 295 294 294 294 294 294 294 294 293 293 293 293 293 293 293 293 292 292 292 291 291 290 290 289 288 288 288 287 286 285 284 284 283 281 280 279 278 277 276 275 274 273 271 271 270 270 270 270 270 269 269 268 267 266 265 265 264 263 262 261 260 260 260 260 260 260 260 259 259 258 257
295 294 294 294 294 293 293 293 292 292 293 294 294 294 294 294 294 294 295 295 295 295 294 294 294 294 294 294 294 294 293 293 292 292 292 291 291 290 290 290 290 289 287 286 286 285 283 282 281 280 278 277 276 275 274 273 272 271 271 270 270 270 270 270 270 269 269 268 267 266 265 264 263 262 260 259 258 259 259 260 260 260 259 259 258
294 293 293 293 293 292 292 292 292 293 293 293 293 294 294 294 295 295 296 297 297 296 296 295 295 295 295 295 295 294 294 293 293 293 292 292 291 291 291 291 291 290 288 287 286 285 284 283 282 281 279 278 276 275 274 274 273 273 273 272 272 271 270 270 270 270 269 268 267 266 265 264 263 263 262 261 260 259 259 259 259 259 259 259 259
293 293 293 293 292 292 292 293 293 293 293 293 293 293 293 294 295 296 297 297 297 297 296 296 296 296 296 296 295 294 293 293 293 293 292 292 291 291 291 291 291 290 289 288 286 285 284 283 282 281 280 278 277 276 275 274 274 274 274 274 274 274 273 271 270 269 268 267 267 265 264 263 263 262 263 262 262 261 261 260 259 258 257 257 257
293 293 293 293 293 293 293 293 293 293 293 293 293 293 294 294 295 296 297 297 297 297 296 296 296 297 296 296 295 294 292 292 292 292 291 291 291 292 292 292 291 290 289 288 287 285 284 283 282 281 280 279 278 278 277 276 276 276 275 275 275 275 274 273 271 270 268 267 266 265 264 263 263 262 262 262 262 262 262 262 261 260 258 257 256
293 293 294 294 294 294 294 294 293 293 293 293 294 294 295 295 295 296 296 296 296 296 296 296 296 296 297 297 296 294 293 293 293 292 291 292 292 292 291 291 291 290 289 288 287 286 284 283 282 281 280 279 279 278 278 278 278 278 277 277 276 276 275 274 272 271 269 268 266 265 264 264 263 262 262 262 262 261 261 261 261 261 260 259 257
295 295 295 295 295 295 295 294 294 294 294 294 294 295 295 295 296 296 296 296 295 296 296 296 296 296 296 296 296 295 295 295 294 293 293 292 292 291 291 291 290 290 289 288 287 286 285 284 283 281 280 280 279 279 279 279 279 278 278 277 277 276 276 274 273 272 270 269 267 266 265 265 264 263 262 261 261 260 260 260 259 259 259 259 258
296 296 296 296 296 295 295 295 295 294 294 295 295 295 295 295 295 295 295 295 295 294 294 294 294 295 296 295 295 295 295 295 295 294 294 293 292 291 291 291 290 290 289 287 286 285 284 284 283 282 282 281 281 280 280 280 279 279 279 278 278 277 277 276 274 273 271 270 268 267 266 265 264 264 263 262 261 260 259 258 258 257 257 257 258
297 297 296 296 296 295 295 295 295 295 296 296 296 296 295 295 295 295 295 294 293 293 293 293 293 294 295 295 295 295 294 295 295 294 293 292 292 291 291 290 290 289 288 287 286 285 284 283 282 282 282 282 282 282 282 281 281 281 280 279 279 278 278 277 276 274 273 272 270 269 267 266 265 264 263 262 262 261 259 258 257 257 256 256 256
296 296 296 296 296 296 296 296 296 296 296 296 295 295 294 294 294 294 293 293 292 292 292 292 293 294 294 294 294 294 294 294 294 294 293 292 291 290 290 290 289 289 288 288 287 285 284 283 283 282 282 283 283 283 282 282 281 281 280 279 279 278 278 277 276 275 274 273 272 271 270 269 267 266 264 263 262 261 260 259 258 257 257 256 255
296 296 296 296 296 296 296 295 295 295 295 294 294 294 293 293 293 293 292 292 292 292 292 292 292 293 293 294 294 294 293 293 293 293 292 291 290 290 290 289 289 288 288 288 287 287 286 285 284 284 284 284 284 283 283 282 281 280 279 278 278 278 277 277 277 276 275 274 274 273 272 271 270 269 267 266 264 264 262 261 260 258 258 257 256
296 296 295 295 295 295 295 295 295 294 294 293 293 293 293 292 292 292 292 292 292 292 292 292 292 292 292 292 293 293 293 293 292 292 291 291 290 289 289 289 288 288 288 287 287 287 286 286 287 287 286 286 286 285 284 283 282 280 279 278 278 278 278 278 277 277 276 276 275 274 274 273 272 271 270 269 267 266 265 264 262 261 259 258 257
296 295 295 295 295 295 295 295 294 294 294 293 293 292 292 292 292 292 292 292 292 292 292 292 292 292 292 292 292 292 292 292 292 291 290 289 289 288 288 288 288 287 287 287 286 286 287 288 288 288 288 288 287 286 285 283 282 280 279 279 279 279 278 278 278 277 277 276 276 275 275 274 273 273 272 270 269 267 266 266 265 263 262 260 259
296 296 296 296 296 295 295 295 294 294 293 293 293 292 292 292 292 292 292 292 292 292 292 291 291 291 291 291 291 291 291 291 291 290 289 289 288 287 287 287 287 287 286 286 286 286 287 288 288 289 288 288 287 286 285 283 281 280 278 277 277 277 278 277 277 277 277 276 276 276 275 275 274 273 272 271 270 268 267 266 266 265 264 262 261
296 296 296 296 295 295 295 295 294 294 293 293 292 292 292 292 293 293 293 293 292 292 291 291 291 291 290 290 290 290 290 290 290 289 289 288 287 286 286 286 286 286 286 286 286 287 287 288 288 288 287 287 286 285 284 283 281 280 279 278 276 276 276 276 276 276 276 275 275 275 275 274 274 273 272 271 270 268 267 267 266 265 264 263 262
295 295 295 295 295 294 294 294 293 293 293 292 292 292 292 293 293 293 292 292 292 291 291 291 290 290 289 289 289 289 289 289 289 289 288 288 287 286 286 285 286 286 286 286 287 288 288 288 288 288 287 286 285 285 284 283 283 282 282 281 280 278 277 276 275 275 275 275 275 274 274 274 274 273 272 271 270 268 267 267 266 265 264 263 262
294 294 294 294 293 293 293 293 293 292 292 292 292 292 292 292 292 292 292 291 291 290 290 290 289 289 288 288 288 288 288 288 288 288 288 287 287 286 286 286 286 286 287 287 288 289 289 290 289 289 288 287 286 286 285 285 284 284 284 284 283 282 280 279 277 276 275 275 275 275 274 273 273 273 272 271 270 269 268 267 266 265 264 263 262
293 293 292 292 292 292 292 292 292 292 291 291 291 291 291 291 291 291 291 290 289 289 289 289 288 288 287 287 287 287 287 287 287 287 287 287 287 286 286 286 286 287 288 289 289 290 290 290 290 290 289 288 288 287 287 286 285 284 284 284 283 282 281 280 279 278 276 276 276 275 275 274 273 272 272 271 270 269 268 266 266 265 264 263 262
292 291 291 291 291 291 291 291 291 291 291 291 291 291 291 291 291 291 290 289 288 288 288 288 287 287 286 286 286 286 286 286 286 286 287 287 287 286 286 286 287 287 288 289 290 291 291 291 290 290 290 289 289 288 288 287 286 285 284 283 283 282 282 281 279 278 278 277 276 276 275 274 273 272 271 270 269 268 267 266 265 264 264 263 262
291 291 291 291 291 291 291 291 291 290 290 291 291 290 290 290 291 290 289 288 288 288 288 287 286 286 285 285 285 285 285 285 285 286 286 286 286 286 287 287 287 288 289 290 290 291 291 291 291 290 290 290 290 289 288 287 286 286 285 284 283 282 282 281 279 278 277 277 276 276 275 275 274 273 272 270 269 268 266 265 265 264 263 262 261
291 291 291 291 291 291 290 290 290 290 290 290 290 290 290 290 290 289 288 287 287 288 287 286 285 285 285 285 285 284 284 284 285 285 286 286 286 286 287 287 288 289 289 290 290 290 290 290 290 290 290 290 289 288 288 287 286 285 284 284 283 282 281 280 279 279 278 277 276 276 276 275 274 273 272 271 269 268 267 265 264 264 263 262 261
290 291 291 291 291 291 291 291 290 290 290 290 290 289 289 289 289 288 287 287 287 287 285 285 285 284 284 284 284 283 284 284 284 285 285 286 286 286 287 287 287 288 289 289 289 289 289 288 288 288 288 287 287 286 286 286 286 285 284 284 283 282 281 280 279 279 278 278 277 276 276 275 275 273 272 271 270 269 267 266 264 264 263 262 261
Height
10479 10473 10467 10461 10454 10447 10440 10432 10425 10419 10413 10408 10403 10398 10394 10390 10386 10382 10379 10375 10372 10369 10366 10364 10362 10360 10359 10357 10356 10354 10353 10352 10351 10350 10348 10347 10346 10345 10344 10342 10341 10340 10338 10336 10335 10334 10335 10335 10334 10334 10335 10337 10338 10338 10340 10342 10344 10347 10350 10353 10357 10359 10363 10369 10380 10399 10406 10398 10402 10410 10404 10400 10408 10411 10409 10413 10418 10419 10426 10435 10440 10446 10451 10454 10459
10464 10458 10452 10445 10439 10433 10425 10418 10410 10404 10399 10393 10388 10383 10378 10374 10369 10366 10362 10358 10355 10351 10349 10347 10344 10342 10341 10339 10338 10337 10336 10334 10333 10332 10331 10329 10328 10327 10326 10325 10324 10322 10321 10319 10317 10316 10315 10316 10316 10316 10315 10316 10317 10317 10319 10321 10322 10325 10327 10330 10335 10338 10340 10346 10354 10369 10383 10382 10380 10389 10390 10383 10387 10394 10390 10393 10401 10402 10404 10413 10418 10424 10432 10436 10440
10448 10442 10436 10429 10422 10416 10409 10402 10395 10390 10384 10379 10374 10369 10364 10359 10354 10350 10346 10342 10338 10335 10333 10330 10328 10326 10324 10322 10321 10320 10319 10317 10316 10315 10314 10313 10312 10310 10309 10307 10306 10304 10302 10301 10299 10298 10297 10297 10297 10297 10298 10298 10298 10298 10299 10301 10301 10304 10307 10307 10311 10316 10318 10321 10329 10339 10353 10362 10362 10365 10371 10367 10369 10377 10374 10372 10381 10385 10386 10392 10396 10400 10408 10414 10420
10432 10426 10419 10412 10405 10397 10390 10384 10379 10374 10369 10365 10360 10355 10349 10344 10339 10335 10331 10327 10323 10320 10318 10315 10313 10310 10308 10306 10305 10303 10302 10301 10299 10298 10298 10297 10296 10294 10292 10290 10289 10287 10286 10284 10282 10281 10280 10279 10278 10278 10280 10280 10280 10279 10279 10281 10282 10283 10286 10287 10287 10293 10296 10298 10304 10312 10323 10338 10344 10344 10348 10350 10352 10357 10358 10353 10358 10364 10367 10372 10376 10377 10383 10389 10396
10415 10409 10402 10395 10387 10379 10373 10368 10363 10358 10354 10349 10345 10340 10335 10330 10325 10320 10316 10313 10309 10306 10303 10301 10298 10295 10293 10290 10288 10287 10285 10284 10282 10281 10281 10280 10279 10278 10276 10274 10271 10270 10268 10267 10265 10264 10263 10262 10261 10260 10261 10262 10262 10261 10261 10261 10262 10262 10264 10266 10267 10269 10275 10277 10280 10287 10296 10310 10323 10324 10326 10331 10333 10336 10339 10335 10335 10342 10346 10351 10355 10357 10361 10366 10372
10398 10392 10385 10377 10369 10362 10356 10351 10347 10342 10338 10333 10329 10325 10320 10315 10311 10306 10302 10299 10295 10292 10289 10286 10283 10280 10277 10275 10272 10270 10268 10266 10265 10264 10264 10263 10261 10260 10258 10256 10254 10252 10250 10248 10247 10247 10246 10246 10245 10244 10243 10244 10244 10243 10243 10243 10243 10243 10243 10245 10247 10249 10253 10257 10259 10264 10272 10283 10297 10304 10306 10309 10311 10315 10318 10314 10313 10320 10326 10329 10332 10336 10341 10347 10352
10382 10375 10368 10360 10352 10345 10340 10335 10330 10326 10322 10318 10313 10309 10304 10300 10296 10291 10288 10284 10281 10278 10275 10271 10268 10265 10262 10259 10257 10254 10252 10250 10249 10247 10247 10245 10243 10242 10240 10238 10237 10234 10232 10230 10229 10228 10229 10229 10229 10228 10226 10227 10227 10226 10226 10226 10225 10225 10225 10226 10229 10231 10234 10238 10240 10244 10251 10259 10270 10280 10284 10287 10289 10292 10294 10292 10291 10300 10307 10307 10310 10316 10322 10328 10335
10365 10357 10351 10344 10336 10330 10324 10319 10314 10310 10306 10302 10298 10293 10289 10284 10280 10276 10273 10269 10266 10264 10260 10257 10253 10249 10247 10244 10241 10239 10236 10234 10232 10231 10230 10228 10226 10225 10223 10221 10219 10217 10214 10212 10211 10210 10211 10211 10211 10211 10209 10208 10209 10208 10208 10209 10209 10209 10209 10209 10212 10216 10217 10220 10223 10226 10232 10239 10248 10255 10260 10265 10268 10268 10270 10270 10271 10279 10284 10283 10289 10300 10303 10305 10313
10348 10340 10334 10327 10321 10315 10309 10303 10299 10295 10291 10287 10283 10278 10274 10269 10265 10261 10257 10254 10252 10249 10246 10242 10238 10235 10232 10229 10226 10223 10220 10217 10216 10215 10213 10212 10210 10208 10206 10204 10202 10200 10197 10195 10194 10193 10193 10193 10193 10192 10191 10190 10189 10190 10190 10191 10191 10193 10193 10193 10195 10199 10201 10203 10206 10208 10212 10218 10227 10233 10238 10244 10246 10245 10247 10250 10251 10257 10262 10261 10267 10282 10286 10283 10290
10330 10324 10318 10312 10306 10301 10294 10289 10284 10280 10276 10272 10268 10264 10259 10254 10250 10246 10242 10239 10237 10234 10231 10227 10224 10220 10218 10214 10211 10207 10204 10202 10200 10199 10197 10196 10195 10193 10191 10189 10186 10184 10182 10180 10178 10177 10175 10176 10175 10174 10173 10172 10171 10171 10171 10171 10172 10175 10178 10179 10180 10181 10184 10186 10188 10190 10193 10199 10206 10211 10217 10223 10224 10222 10225 10230 10230 10234 10242 10243 10246 10259 10267 10265 10271
10313 10307 10302 10296 10291 10286 10280 10275 10270 10265 10261 10256 10252 10248 10244 10240 10235 10232 10228 10225 10222 10219 10216 10213 10209 10206 10203 10199 10196 10192 10188 10186 10185 10183 10182 10181 10181 10180 10177 10175 10171 10169 10168 10166 10164 10162 10160 10159 10158 10156 10154 10153 10153 10154 10153 10153 10154 10157 10160 10162 10163 10164 10166 10168 10170 10172 10175 10181 10187 10190 10194 10200 10202 10201 10203 10208 10209 10212 10221 10226 10227 10235 10244 10247 10254
10296 10290 10285 10280 10276 10271 10265 10260 10255 10250 10245 10240 10236 10233 10228 10224 10220 10217 10214 10211 10207 10204 10201 10198 10194 10191 10188 10184 10181 10177 10173 10171 10169 10168 10167 10166 10166 10166 10164 10160 10157 10155 10153 10152 10150 10148 10146 10144 10141 10139 10137 10136 10136 10137 10136 10137 10139 10140 10142 10144 10145 10147 10148 10150 10154 10156 10158 10163 10169 10171 10173 10177 10181 10180 10181 10185 10189 10193 10199 10206 10210 10214 10222 10228 10236
10279 10274 10269 10264 10260 10255 10250 10245 10239 10234 10229 10225 10221 10217 10213 10209 10205 10202 10199 10196 10192 10189 10186 10183 10179 10176 10173 10169 10166 10162 10158 10156 10155 10154 10153 10152 10151 10151 10149 10146 10143 10141 10139 10138 10136 10134 10132 10129 10125 10122 10120 10119 10119 10119 10120 10122 10123 10124 10124 10125 10127 10128 10130 10133 10137 10140 10144 10147 10151 10152 10151 10155 10161 10161 10161 10165 10170 10175 10180 10185 10189 10193 10202 10212 10218
10263 10258 10253 10248 10244 10239 10234 10229 10224 10219 10214 10209 10205 10201 10197 10194 10190 10187 10184 10180 10177 10174 10170 10167 10164 10161 10157 10154 10151 10147 10143 10141 10141 10140 10139 10138 10137 10136 10134 10131 10128 10127 10125 10124 10122 10119 10117 10114 10111 10107 10104 10103 10103 10103 10105 10106 10107 10107 10107 10108 10109 10110 10112 10116 10119 10123 10128 10131 10134 10135 10133 10135 10141 10143 10143 10146 10151 10156 10161 10165 10168 10172 10180 10194 10202
10248 10243 10238 10233 10228 10223 10218 10213 10208 10204 10199 10194 10190 10186 10182 10179 10175 10172 10169 10165 10162 10158 10155 10152 10149 10145 10142 10139 10136 10133 10129 10127 10127 10126 10124 10123 10122 10121 10119 10116 10114 10112 10111 10109 10108 10105 10102 10099 10096 10094 10091 10089 10088 10089 10089 10090 10091 10092 10092 10092 10092 10094 10095 10098 10101 10105 10111 10114 10117 10120 10118 10118 10121 10123 10125 10128 10131 10136 10141 10144 10147 10151 10160 10173 10182
10233 10228 10223 10217 10212 10206 10202 10197 10193 10189 10184 10180 10176 10171 10168 10164 10161 10157 10154 10150 10147 10144 10140 10137 10134 10131 10127 10124 10121 10118 10114 10112 10111 10111 10108 10107 10107 10106 10104 10102 10099 10097 10096 10094 10092 10090 10086 10084 10082 10081 10080 10077 10076 10074 10073 10075 10077 10077 10077 10077 10077 10078 10079 10079 10082 10088 10093 10096 10099 10102 10103 10103 10104 10105 10107 10109 10111 10116 10121 10123 10126 10132 10141 10153 10162
10218 10213 10207 10201 10196 10191 10186 10182 10178 10173 10169 10165 10161 10157 10153 10150 10146 10143 10139 10137 10133 10129 10126 10123 10119 10116 10112 10109 10107 10103 10099 10097 10096 10094 10093 10091 10091 10091 10089 10087 10085 10083 10081 10079 10077 10074 10071 10069 10068 10068 10068 10065 10063 10061 10058 10060 10063 10064 10064 10064 10063 10063 10061 10060 10064 10070 10075 10078 10080 10083 10085 10086 10087 10089 10090 10091 10093 10097 10100 10104 10108 10114 10125 10136 10142
10204 10198 10192 10186 10181 10176 10171 10166 10163 10158 10155 10151 10147 10143 10140 10136 10133 10130 10126 10123 10119 10115 10112 10109 10105 10101 10098 10095 10093 10090 10086 10083 10080 10078 10077 10076 10076 10075 10074 10072 10070 10068 10066 10064 10061 10059 10056 10054 10054 10054 10054 10051 10049 10047 10045 10047 10050 10050 10051 10052 10050 10047 10044 10045 10049 10053 10055 10058 10062 10064 10066 10067 10069 10072 10074 10075 10077 10079 10082 10086 10090 10097 10108 10118 10124
10190 10184 10179 10173 10167 10162 10157 10153 10149 10145 10141 10138 10133 10130 10126 10122 10119 10116 10113 10110 10106 10102 10099 10095 10091 10087 10084 10081 10079 10076 10073 10069 10066 10064 10061 10061 10061 10061 10059 10057 10055 10053 10052 10049 10046 10043 10041 10040 10039 10039 10039 10037 10035 10034 10033 10033 10035 10037 10038 10039 10037 10034 10031 10032 10036 10037 10037 10040 10043 10045 10047 10049 10051 10054 10057 10059 10061 10062 10066 10070 10073 10081 10091 10099 10105
10176 10170 10165 10160 10155 10150 10145 10140 10136 10132 10128 10124 10120 10116 10112 10109 10106 10103 10099 10096 10093 10089 10086 10082 10079 10074 10069 10067 10064 10062 10060 10056 10051 10049 10047 10047 10047 10046 10045 10043 10041 10040 10038 10035 10032 10029 10027 10026 10024 10022 10023 10023 10022 10022 10020 10019 10021 10023 10023 10024 10024 10021 10020 10020 10021 10021 10022 10023 10025 10027 10029 10030 10033 10036 10039 10043 10045 10047 10051 10055 10059 10067 10075 10081 10086
10162 10157 10152 10147 10141 10136 10132 10127 10123 10118 10114 10110 10106 10102 10098 10095 10092 10089 10086 10083 10080 10076 10073 10069 10066 10061 10056 10053 10051 10048 10046 10042 10038 10035 10033 10033 10033 10032 10031 10030 10028 10027 10025 10021 10018 10016 10014 10011 10008 10006 10007 10008 10008 10007 10006 10005 10006 10009 10009 10008 10009 10008 10008 10008 10007 10005 10007 10009 10009 10010 10011 10012 10016 10019 10023 10026 10029 10032 10035 10039 10045 10052 10058 10063 10066
10148 10143 10138 10132 10128 10123 10119 10114 10110 10106 10101 10097 10092 10089 10085 10082 10080 10076 10073 10071 10067 10064 10061 10056 10053 10048 10043 10040 10037 10035 10032 10029 10025 10022 10020 10019 10018 10018 10017 10016 10015 10015 10014 10010 10005 10002 9999 9997 9994 9991 9993 9994 9993 9992 9991 9991 9992 9994 9994 9994 9994 9994 9995 9995 9993 9991 9993 9995 9994 9994 9994 9997 10000 10003 10005 10008 10011 10014 10019 10024 10029 10036 10042 10047 10049
10133 10128 10123 10118 10114 10109 10105 10101 10097 10092 10088 10083 10079 10076 10072 10069 10066 10063 10060 10058 10055 10052 10048 10044 10040 10036 10031 10027 10024 10022 10019 10016 10013 10010 10007 10006 10004 10002 10002 10001 10001 10002 10002 9999 9994 9989 9985 9982 9980 9978 9979 9979 9978 9977 9977 9977 9977 9979 9980 9980 9981 9981 9982 9982 9980 9979 9979 9980 9979 9980 9980 9982 9985 9987 9988 9991 9994 9998 10003 10007 10013 10019 10025 10030 10034
10119 10113 10108 10104 10100 10095 10091 10087 10083 10078 10074 10070 10066 10062 10059 10055 10053 10050 10047 10045 10043 10039 10035 10031 10028 10024 10020 10015 10011 10008 10006 10003 10000 9997 9995 9994 9990 9987 9987 9986 9986 9988 9990 9988 9984 9978 9972 9968 9967 9966 9966 9964 9964 9963 9962 9962 9963 9964 9965 9966 9967 9967 9968 9969 9968 9967 9966 9965 9965 9966 9966 9967 9970 9972 9974 9976 9979 9982 9986 9990 9996 10002 10008 10013 10019
10104 10099 10094 10090 10086 10082 10078 10073 10069 10065 10060 10057 10053 10049 10045 10042 10039 10037 10034 10032 10030 10026 10022 10019 10016 10013 10009 10005 10000 9996 9993 9990 9987 9984 9982 9981 9977 9973 9972 9971 9972 9974 9976 9975 9971 9966 9960 9956 9955 9955 9953 9952 9950 9949 9948 9948 9949 9950 9951 9952 9953 9953 9953 9955 9956 9955 9954 9953 9953 9953 9952 9952 9955 9958 9960 9963 9965 9967 9970 9974 9979 9984 9990 9997 10003
10091 10086 10081 10077 10073 10069 10065 10060 10056 10052 10048 10044 10040 10036 10032 10030 10026 10023 10021 10019 10017 10013 10009 10006 10004 10001 9998 9994 9989 9985 9981 9978 9975 9972 9969 9967 9964 9960 9958 9957 9958 9960 9961 9960 9958 9953 9948 9945 9944 9943 9942 9940 9938 9937 9936 9935 9934 9935 9937 9938 9939 9939 9939 9941 9942 9942 9942 9942 9941 9941 9939 9940 9942 9944 9946 9950 9952 9953 9956 9960 9963 9967 9971 9979 9987
10078 10073 10068 10065 10061 10057 10052 10048 10044 10040 10036 10031 10027 10024 10020 10017 10014 10011 10008 10006 10003 10000 9997 9994 9992 9990 9987 9983 9978 9974 9970 9966 9964 9961 9958 9955 9951 9948 9946 9944 9945 9947 9947 9946 9943 9940 9937 9934 9932 9931 9930 9928 9927 9926 9925 9923 9921 9921 9922 9923 9925 9926 9926 9927 9928 9929 9930 9930 9929 9928 9928 9929 9931 9932 9934 9937 9938 9938 9941 9944 9947 9951 9955 9961 9969
10065 10060 10056 10052 10048 10044 10040 10036 10032 10028 10024 10019 10015 10011 10008 10005 10002 9998 9995 9993 9991 9987 9984 9982 9979 9978 9976 9972 9968 9963 9959 9955 9953 9951 9948 9944 9940 9936 9933 9933 9934 9934 9932 9931 9929 9927 9925 9922 9920 9919 9918 9917 9916 9915 9914 9912 9910 9908 9908 9908 9910 9912 9913 9914 9915 9916 9918 9918 9917 9917 9918 9919 9920 9921 9922 9924 9923 9923 9925 9928 9932 9936 9939 9944 9950
10052 10048 10044 10040 10036 10032 10028 10023 10019 10016 10011 10007 10003 9999 9995 9992 9989 9986 9983 9981 9979 9976 9973 9970 9967 9966 9963 9960 9957 9954 9949 9944 9941 9939 9936 9932 9928 9925 9923 9922 9923 9921 9919 9917 9916 9914 9913 9910 9908 9907 9906 9905 9904 9903 9902 9901 9899 9898 9897 9896 9896 9898 9900 9901 9903 9904 9905 9906 9906 9906 9907 9908 9909 9910 9911 9911 9910 9909 9910 9913 9917 9921 9924 9927 9932
10040 10036 10032 10028 10025 10021 10016 10011 10008 10003 9999 9995 9991 9987 9983 9979 9976 9974 9971 9969 9967 9964 9962 9959 9957 9954 9951 9947 9944 9942 9939 9935 9931 9927 9924 9919 9915 9912 9911 9912 9912 9910 9907 9904 9903 9902 9901 9898 9896 9896 9894 9893 9892 9891 9890 9889 9888 9887 9886 9885 9885 9886 9887 9889 9891 9892 9892 9894 9895 9895 9895 9896 9896 9897 9898 9898 9897 9897 9897 9900 9903 9907 9909 9912 9916
10028 10024 10020 10016 10013 10009 10004 10000 9996 9992 9987 9984 9979 9975 9970 9966 9963 9961 9959 9957 9954 9950 9948 9946 9944 9942 9940 9937 9933 9930 9927 9923 9920 9916 9913 9908 9902 9898 9898 9900 9900 9898 9896 9894 9892 9890 9889 9886 9884 9884 9883 9881 9881 9879 9878 9877 9876 9875 9874 9874 9875 9877 9877 9877 9879 9880 9881 9882 9883 9883 9883 9883 9883 9882 9883 9885 9886 9886 9885 9887 9890 9894 9896 9899 9902
10015 10011 10008 10004 10001 9997 9993 9988 9984 9980 9976 9972 9968 9964 9959 9953 9949 9946 9945 9945 9942 9938 9934 9932 9931 9929 9928 9925 9923 9920 9916 9913 9909 9905 9901 9897 9892 9888 9887 9888 9888 9886 9884 9883 9881 9879 9878 9876 9873 9872 9871 9870 9869 9868 9867 9866 9865 9864 9863 9862 9863 9866 9868 9868 9869 9870 9870 9870 9871 9871 9871 9871 9870 9870 9870 9872 9874 9874 9874 9875 9878 9882 9885 9887 9888
10003 10000 9996 9992 9988 9984 9980 9977 9972 9968 9964 9960 9957 9953 9948 9944 9938 9933 9930 9929 9928 9926 9924 9920 9918 9916 9915 9913 9912 9909 9906 9904 9901 9896 9890 9885 9881 9878 9877 9877 9877 9875 9873 9871 9870 9868 9866 9865 9863 9861 9859 9858 9858 9857 9856 9855 9854 9854 9853 9852 9852 9853 9856 9858 9859 9859 9859 9859 9859 9858 9859 9859 9859 9859 9859 9860 9861 9862 9862 9863 9866 9870 9873 9875 9876
9991 9987 9984 9980 9976 9972 9968 9964 9960 9956 9951 9948 9944 9940 9937 9934 9929 9925 9920 9915 9911 9910 9910 9909 9907 9904 9902 9900 9899 9898 9896 9895 9892 9888 9881 9876 9872 9869 9867 9866 9866 9865 9862 9860 9859 9857 9855 9854 9852 9850 9848 9847 9847 9845 9845 9845 9845 9844 9844 9843 9842 9842 9843 9846 9847 9847 9847 9848 9847 9847 9847 9847 9848 9849 9849 9849 9849 9851 9851 9852 9854 9857 9860 9862 9863
9978 9975 9971 9968 9963 9959 9955 9951 9948 9944 9939 9935 9932 9929 9926 9922 9919 9915 9911 9906 9900 9895 9893 9894 9895 9894 9892 9888 9885 9883 9883 9883 9881 9877 9872 9866 9862 9859 9857 9856 9855 9854 9852 9850 9848 9846 9844 9842 9842 9841 9839 9837 9836 9836 9835 9834 9834 9834 9834 9833 9832 9832 9832 9834 9835 9835 9835 9836 9836 9836 9836 9836 9837 9838 9838 9838 9839 9840 9841 9841 9842 9844 9845 9847 9849
9965 9961 9958 9955 9950 9946 9942 9938 9935 9932 9928 9923 9920 9918 9914 9910 9907 9904 9901 9897 9891 9886 9881 9878 9879 9880 9881 9880 9875 9870 9869 9870 9868 9865 9860 9856 9852 9849 9847 9845 9844 9843 9842 9841 9838 9836 9833 9831 9830 9830 9829 9828 9827 9826 9826 9825 9824 9824 9824 9823 9822 9822 9822 9823 9824 9824 9824 9824 9824 9825 9825 9825 9826 9827 9828 9828 9828 9830 9830 9830 9831 9832 9833 9835 9837
9951 9948 9945 9941 9937 9933 9929 9925 9923 9920 9916 9913 9909 9906 9902 9899 9896 9893 9890 9886 9882 9878 9873 9868 9866 9865 9867 9868 9866 9861 9857 9856 9856 9854 9849 9846 9843 9839 9837 9835 9833 9832 9831 9830 9829 9827 9824 9822 9820 9819 9818 9817 9817 9817 9816 9816 9815 9814 9813 9813 9812 9811 9811 9811 9813 9813 9813 9812 9813 9814 9815 9815 9816 9817 9817 9817 9818 9819 9819 9819 9820 9821 9822 9824 9826
9938 9934 9931 9928 9925 9920 9917 9913 9910 9907 9905 9901 9898 9894 9890 9887 9884 9882 9879 9876 9872 9869 9864 9860 9856 9854 9852 9853 9854 9852 9848 9845 9845 9843 9839 9836 9833 9830 9827 9825 9823 9821 9820 9819 9819 9817 9815 9814 9812 9810 9809 9808 9807 9807 9806 9806 9805 9804 9803 9802 9801 9801 9801 9800 9801 9802 9802 9801 9801 9802 9803 9804 9805 9806 9807 9808 9808 9808 9808 9808 9809 9811 9812 9814 9816
9925 9921 9918 9915 9912 9908 9905 9901 9898 9895 9893 9890 9886 9882 9879 9876 9873 9871 9868 9865 9862 9859 9855 9851 9848 9844 9841 9839 9839 9840 9839 9837 9835 9832 9829 9826 9823 9820 9818 9816 9813 9811 9810 9808 9807 9807 9805 9804 9803 9802 9801 9800 9799 9798 9797 9796 9796 9795 9793 9791 9791 9791 9790 9790 9790 9790 9791 9791 9790 9791 9792 9793 9794 9795 9797 9798 9798 9798 9797 9798 9799 9801 9802 9803 9806
9913 9909 9906 9903 9900 9897 9894 9890 9887 9884 9882 9879 9876 9872 9869 9865 9862 9860 9857 9854 9851 9848 9845 9841 9838 9835 9832 9828 9826 9826 9826 9827 9826 9822 9819 9817 9814 9811 9808 9806 9804 9802 9800 9798 9797 9796 9794 9794 9794 9793 9792 9792 9791 9790 9789 9788 9787 9786 9784 9782 9781 9781 9781 9781 9780 9780 9781 9781 9780 9781 9781 9782 9783 9784 9785 9787 9787 9787 9787 9787 9788 9790 9792 9793 9795
9901 9897 9894 9892 9889 9886 9883 9879 9876 9873 9871 9868 9865 9862 9858 9855 9852 9849 9846 9844 9840 9837 9834 9831 9828 9826 9822 9819 9816 9814 9814 9815 9815 9813 9810 9808 9805 9802 9799 9797 9795 9793 9791 9789 9788 9786 9784 9784 9784 9784 9783 9782 9781 9781 9780 9779 9777 9776 9775 9774 9773 9772 9772 9771 9771 9770 9771 9771 9771 9771 9771 9772 9772 9773 9774 9776 9777 9776 9776 9776 9777 9779 9782 9783 9785
9889 9885 9882 9880 9877 9875 9871 9868 9865 9862 9859 9856 9853 9850 9847 9844 9841 9838 9836 9833 9830 9827 9824 9821 9819 9816 9813 9809 9806 9804 9803 9803 9803 9803 9802 9799 9796 9794 9791 9788 9786 9784 9782 9781 9779 9777 9776 9776 9775 9774 9774 9773 9772 9772 9771 9770 9768 9767 9766 9765 9764 9764 9763 9763 9762 9761 9761 9761 9762 9762 9762 9762 9763 9764 9764 9765 9766 9766 9766 9766 9766 9768 9771 9773 9774
9876 9873 9870 9867 9864 9862 9859 9856 9853 9850 9847 9843 9840 9837 9835 9833 9830 9827 9825 9822 9820 9817 9814 9811 9809 9806 9803 9799 9796 9795 9794 9793 9792 9792 9792 9790 9788 9785 9783 9780 9778 9775 9773 9772 9770 9769 9769 9769 9768 9766 9765 9765 9764 9763 9762 9761 9759 9758 9758 9758 9758 9756 9755 9754 9753 9753 9752 9752 9753 9753 9753 9753 9754 9754 9755 9755 9756 9756 9756 9756 9757 9758 9760 9762 9764
9863 9860 9857 9854 9852 9849 9846 9844 9841 9838 9835 9831 9828 9826 9824 9821 9819 9816 9814 9811 9809 9806 9803 9801 9798 9796 9794 9790 9787 9785 9784 9783 9781 9781 9781 9780 9779 9777 9774 9772 9769 9767 9765 9763 9762 9761 9761 9761 9760 9759 9758 9757 9756 9755 9754 9753 9751 9749 9749 9750 9750 9749 9748 9747 9746 9745 9743 9743 9744 9744 9744 9744 9744 9745 9745 9746 9746 9747 9747 9747 9747 9749 9750 9752 9753
9852 9849 9846 9842 9839 9836 9834 9831 9829 9826 9823 9820 9817 9814 9812 9810 9808 9806 9803 9801 9798 9795 9793 9791 9788 9786 9784 9782 9778 9775 9775 9773 9772 9771 9770 9769 9768 9767 9765 9763 9761 9758 9756 9755 9754 9753 9753 9752 9751 9751 9750 9749 9748 9747 9746 9745 9743 9741 9740 9740 9740 9741 9740 9739 9739 9737 9735 9735 9735 9736 9736 9736 9736 9736 9736 9736 9737 9738 9738 9738 9738 9740 9741 9742 9744
9841 9838 9834 9831 9828 9825 9822 9819 9817 9815 9812 9809 9805 9803 9801 9799 9798 9795 9793 9790 9788 9785 9783 9781 9779 9776 9775 9772 9769 9766 9765 9764 9763 9761 9760 9759 9758 9757 9755 9754 9752 9749 9748 9746 9745 9745 9744 9743 9742 9741 9740 9740 9740 9739 9738 9737 9736 9734 9733 9732 9731 9731 9731 9731 9730 9730 9728 9727 9727 9727 9728 9728 9728 9727 9728 9728 9728 9729 9730 9730 9730 9731 9732 9733 9735
9829 9826 9823 9820 9817 9813 9810 9808 9806 9804 9801 9798 9795 9792 9790 9789 9787 9785 9783 9780 9777 9775 9773 9771 9769 9767 9765 9763 9761 9758 9756 9754 9753 9752 9750 9749 9748 9747 9746 9744 9742 9741 9740 9738 9736 9736 9735 9734 9733 9732 9731 9731 9731 9730 9730 9729 9728 9727 9726 9725 9724 9723 9723 9722 9722 9721 9721 9720 9719 9719 9720 9720 9720 9720 9720 9720 9720 9721 9721 9721 9722 9722 9724 9725 9726
9817 9814 9811 9808 9805 9802 9799 9797 9795 9792 9790 9787 9784 9782 9779 9778 9776 9775 9772 9769 9767 9765 9764 9762 9759 9757 9755 9754 9752 9750 9747 9745 9744 9742 9741 9740 9739 9738 9736 9735 9734 9733 9732 9730 9728 9727 9726 9725 9725 9724 9723 9722 9722 9721 9721 9721 9720 9719 9719 9718 9717 9716 9715 9715 9714 9713 9713 9712 9712 9712 9712 9712 9712 9712 9712 9712 9712 9713 9713 9713 9714 9715 9716 9717 9718
9805 9802 9799 9797 9794 9791 9788 9786 9784 9781 9779 9776 9774 9771 9769 9767 9765 9764 9762 9759 9757 9756 9754 9752 9749 9747 9746 9744 9743 9741 9739 9737 9735 9734 9733 9731 9730 9729 9728 9726 9725 9724 9724 9722 9721 9719 9718 9717 9716 9716 9715 9714 9713 9713 9712 9712 9712 9711 9711 9711 9710 9709 9708 9707 9706 9706 9706 9705 9705 9704 9704 9704 9705 9705 9705 9705 9705 9705 9706 9706 9706 9707 9708 9709 9710
9794 9791 9788 9786 9783 9780 9778 9775 9773 9770 9768 9766 9763 9761 9759 9757 9755 9753 9751 9749 9747 9746 9744 9742 9740 9738 9736 9735 9734 9732 9730 9729 9727 9726 9725 9723 9722 9721 9719 9718 9717 9717 9716 9715 9714 9712 9710 9709 9709 9708 9708 9707 9706 9705 9704 9704 9704 9704 9704 9703 9703 9702 9701 9700 9699 9699 9698 9698 9698 9697 9697 9697 9697 9697 9697 9697 9697 9698 9698 9698 9699 9699 9700 9701 9702
9783 9780 9777 9775 9772 9770 9767 9764 9762 9759 9757 9755 9753 9750 9749 9747 9745 9743 9741 9739 9738 9736 9734 9732 9731 9729 9727 9726 9725 9723 9722 9720 9719 9718 9717 9716 9714 9713 9712 9711 9710 9709 9708 9707 9706 9705 9703 9702 9702 9701 9701 9700 9699 9698 9698 9697 9696 9696 9696 9695 9695 9695 9694 9693 9692 9691 9691 9691 9690 9690 9690 9690 9690 9690 9691 9690 9690 9690 9691 9691 9692 9692 9693 9694 9695